Ypsilanti, MI

9:44 AM EDT on September 29, 2016 (GMT -0400)
Willow Run

Weather History for KYIP - May, 2013

Change the Weather History Date:

Wednesday, May 8, 2013

  Actual Average Record
Temperature  
Mean Temperature 68 °F -  
Max Temperature 82 °F 68 °F 91 °F (2015)
Min Temperature 54 °F 46 °F 32 °F (1976)
Cooling Degree Days 3    
Growing Degree Days 18 (Base 50)    
Moisture  
Dew Point 49 °F    
Average Humidity 57    
Maximum Humidity 81    
Minimum Humidity 31    
Precipitation  
Precipitation 0.00 in - - ()
Sea Level Pressure  
Sea Level Pressure 29.98 in    
Wind  
Wind Speed 3 mph (NE)    
Max Wind Speed 12 mph    
Max Gust Speed 20 mph    
Visibility 10 miles    
Events Rain    
Averages and records for this station are not official NWS values.
T = Trace of Precipitation, MM = Missing Value Source: NWS Daily Summary

Daily Weather History Graph

Daily Weather History Graph

Search for Another Location

Airport or City:

Trip Planner

Search our weather history database for the weather conditions in past years. The results will help you decide how hot, cold, wet, or windy it might be!

Date:

Astronomy

May. 08, 2013 Rise Set
Actual Time 6:20 AM EDT 8:41 PM EDT
Civil Twilight 5:49 AM EDT 9:12 PM EDT
Nautical Twilight 5:10 AM EDT 9:51 PM EDT
Astronomical Twilight 4:27 AM EDT 10:35 PM EDT
Moon 5:29 AM EDT (5/8) 7:37 PM EDT (5/8)
Length of Visible Light 15h 23m
Length of Day
14h 20m
Waning Crescent, 2% of the Moon is Illuminated
May 8
Waning Crescent
May 9
New
May 18
First Quarter
May 25
Full
May 31
Last Quarter

Hourly Weather History & Observations

Time (EDT) Temp. Dew Point Humidity Pressure Visibility Wind Dir Wind Speed Gust Speed Precip Events Conditions
12:53 AM 55.0 °F 48.0 °F 77% 30.02 in 10.0 mi Calm Calm - N/A   Clear
1:53 AM 54.0 °F 46.9 °F 77% 30.00 in 10.0 mi NNW 4.6 mph - N/A   Mostly Cloudy
2:53 AM 57.0 °F 46.9 °F 69% 29.98 in 10.0 mi Calm Calm - N/A   Mostly Cloudy
3:53 AM 54.0 °F 45.0 °F 72% 29.99 in 10.0 mi Calm Calm - N/A   Clear
4:53 AM 57.0 °F 44.1 °F 62% 29.98 in 10.0 mi NNW 3.5 mph - N/A   Overcast
5:53 AM 55.9 °F 45.0 °F 67% 29.97 in 10.0 mi Calm Calm - N/A   Overcast
6:53 AM 57.9 °F 46.0 °F 65% 29.98 in 10.0 mi Calm Calm - N/A   Overcast
7:53 AM 62.1 °F 48.0 °F 60% 30.00 in 10.0 mi North 3.5 mph - N/A   Overcast
8:53 AM 68.0 °F 46.9 °F 47% 30.01 in 10.0 mi NNE 4.6 mph - N/A   Scattered Clouds
9:53 AM 71.1 °F 46.9 °F 42% 30.01 in 10.0 mi NE 4.6 mph - N/A   Clear
10:53 AM 72.0 °F 46.9 °F 41% 30.01 in 10.0 mi ENE 5.8 mph - N/A   Scattered Clouds
11:53 AM 77.0 °F 50.0 °F 39% 30.00 in 10.0 mi NNE 9.2 mph - N/A   Mostly Cloudy
12:53 PM 79.0 °F 48.9 °F 35% 29.98 in 10.0 mi North 5.8 mph - N/A   Scattered Clouds
1:53 PM 80.1 °F 50.0 °F 35% 29.97 in 10.0 mi Calm Calm - N/A   Clear
2:53 PM 82.0 °F 48.9 °F 31% 29.95 in 10.0 mi NNE 5.8 mph - N/A   Partly Cloudy
3:53 PM 75.9 °F 51.1 °F 42% 29.95 in 10.0 mi ESE 6.9 mph - N/A   Scattered Clouds
4:53 PM 73.9 °F 53.1 °F 48% 29.95 in 10.0 mi West 11.5 mph 19.6 mph 0.00 in Rain Light Rain
5:53 PM 71.1 °F 53.1 °F 53% 29.94 in 10.0 mi South 8.1 mph - 0.00 in   Overcast
6:53 PM 71.1 °F 53.1 °F 53% 29.95 in 10.0 mi ESE 6.9 mph - N/A   Partly Cloudy
7:53 PM 69.1 °F 55.0 °F 61% 29.95 in 10.0 mi SE 3.5 mph - N/A   Mostly Cloudy
8:53 PM 66.9 °F 54.0 °F 63% 29.95 in 10.0 mi Calm Calm - N/A   Clear
9:53 PM 61.0 °F 54.0 °F 78% 29.96 in 10.0 mi Calm Calm - N/A   Clear
10:53 PM 59.0 °F 53.1 °F 81% 29.97 in 10.0 mi Calm Calm - N/A   Clear
11:53 PM 57.9 °F 52.0 °F 81% 29.97 in 10.0 mi South 4.6 mph - N/A   Clear